{"data":{"norad_id":45387,"intl_designator":"2020-019AD","name":"STARLINK-1274","alt_names":[],"object_type":"PAYLOAD","status":"ACTIVE","operator":null,"country":"US","launch_date":"2020-03-18","launch_site_code":"AFETR","launch_vehicle":null,"mission":null,"orbit_class":"UNKNOWN","rcs_meters":null,"size_class":null,"mass_kg":null,"dimensions":null,"purposes":["comms"],"wikipedia_slug":null,"has_3d_model":false,"image_url":null,"decayed_at":null,"tle_current":{"epoch":"2026-05-25T02:18:03.968064Z","epoch_age_seconds":60652,"freshness":"FRESH","line1":"1 45387U 20019AD  26145.09587926  .00081346  00000+0  10214-2 0  9994","line2":"2 45387  53.0208  94.2602 0009023  75.8495 284.3519 15.58987120342492","mean_motion":15.5898712,"eccentricity":0.0009023,"inclination_deg":53.0208,"raan_deg":94.2602,"arg_perigee_deg":75.8495,"mean_anomaly_deg":284.3519,"bstar":0.0010214,"rev_number":34249,"period_min":92.367664974679,"perigee_km":384.47985211628,"apogee_km":396.69469193758,"semimajor_km":6768.7242720269,"source":"CELESTRAK","updated_at":"2026-05-25T13:38:16.416527Z"}}}